Location: Aultman
(40.9284°N, 81.4173°W)
Time: 09:27:38
(UTC+00:00)

SJ 16-02 - Pass Details

Date: 24 January 2021
Orbit: 606 x 616 km, 75.0° (Epoch: 02 March)

Event Time Altitude Azimuth Distance (km) Brightness Sun altitude
Rises 22:57:26 0° 190° (S) 2,861 5.2 -5.0°
Reaches altitude 10° 22:59:40 10° 188° (S) 1,960 4.3 -5.4°
Maximum altitude 23:04:00 68° 106° (ESE) 658 1.3 -6.2°
Drops below altitude 10° 23:08:23 10° 23° (NNE) 1,969 3.6 -7.0°
Sets 23:10:38 0° 21° (NNE) 2,877 4.4 -7.4°
